QPF
0.01 0.00 0.00 0.00 0.00 0.00 0.00 0.00 0.00 0.00 0.00 0.00 0.00 0.00 0.00 0.00 0.00 0.00 0.00 0.00 0.00 0.00 0.00 0.00 0.00 0.00 0.00 0.00 0.00 0.00 0.00 0.00 0.00 0.00 0.00 0.00 0.00 0.00 0.00 0.00 0.00 0.00 0.01
0.01 0.00 0.01 0.00 0.00 0.00 0.00 0.00 0.00 0.00 0.00 0.00 0.00 0.00 0.00 0.00 0.00 0.00 0.00 0.00 0.00 0.00 0.00 0.00 0.00 0.00 0.00 0.00 0.00 0.00 0.00 0.00 0.00 0.01 0.01 0.01 0.01 0.00 0.00 0.00 0.00 0.01 0.02
0.01 0.00 0.00 0.00 0.00 0.05 0.04 0.01 0.00 0.00 0.00 0.00 0.00 0.00 0.00 0.00 0.00 0.00 0.00 0.00 0.00 0.00 0.00 0.00 0.00 0.00 0.00 0.00 0.00 0.00 0.00 0.00 0.00 0.00 0.00 0.00 0.00 0.00 0.00 0.01 0.01 0.01 0.01
0.03 0.00 0.00 0.00 0.02 0.01 0.20 0.19 0.08 0.01 0.00 0.00 0.00 0.00 0.00 0.00 0.00 0.00 0.00 0.00 0.00 0.00 0.00 0.00 0.00 0.00 0.00 0.00 0.00 0.00 0.00 0.00 0.00 0.00 0.00 0.00 0.00 0.00 0.00 0.00 0.01 0.01 0.00
0.03 0.02 0.00 0.02 0.02 0.00 0.06 0.28 0.21 0.10 0.01 0.00 0.00 0.00 0.00 0.00 0.00 0.00 0.00 0.00 0.00 0.00 0.00 0.00 0.00 0.00 0.00 0.00 0.00 0.00 0.00 0.00 0.00 0.00 0.00 0.00 0.00 0.00 0.00 0.00 0.00 0.01 0.00
0.01 0.04 0.05 0.21 0.28 0.08 0.04 0.15 0.31 0.22 0.05 0.00 0.00 0.00 0.00 0.00 0.00 0.00 0.00 0.00 0.00 0.00 0.00 0.00 0.00 0.00 0.00 0.00 0.00 0.00 0.00 0.00 0.00 0.00 0.00 0.00 0.00 0.00 0.00 0.00 0.00 0.00 0.00
0.01 0.01 0.03 0.13 0.29 0.45 0.36 0.33 0.29 0.45 0.14 0.01 0.00 0.00 0.00 0.00 0.00 0.00 0.00 0.00 0.00 0.00 0.00 0.00 0.00 0.00 0.00 0.00 0.00 0.00 0.00 0.00 0.00 0.00 0.00 0.00 0.00 0.00 0.00 0.00 0.00 0.00 0.00
0.07 0.14 0.14 0.15 0.29 1.08 1.19 0.68 0.39 0.22 0.18 0.01 0.01 0.00 0.00 0.00 0.00 0.00 0.00 0.00 0.00 0.00 0.00 0.00 0.00 0.00 0.00 0.00 0.00 0.00 0.00 0.00 0.00 0.00 0.00 0.00 0.00 0.00 0.00 0.00 0.00 0.00 0.00
0.18 0.28 0.40 0.52 0.35 0.51 0.93 1.62 0.51 0.22 0.15 0.02 0.00 0.00 0.00 0.00 0.00 0.00 0.00 0.00 0.00 0.00 0.00 0.00 0.00 0.00 0.00 0.00 0.00 0.00 0.00 0.00 0.00 0.00 0.00 0.00 0.00 0.00 0.00 0.00 0.00 0.00 0.00
0.14 0.16 0.25 0.53 0.50 0.62 0.83 2.09 1.46 0.75 0.23 0.05 0.01 0.01 0.00 0.00 0.00 0.00 0.00 0.00 0.00 0.00 0.00 0.00 0.00 0.00 0.00 0.00 0.00 0.00 0.00 0.00 0.00 0.00 0.00 0.00 0.00 0.00 0.00 0.00 0.00 0.00 0.00
0.04 0.07 0.19 0.18 0.13 0.14 0.39 0.80 1.08 1.09 0.58 0.16 0.04 0.00 0.00 0.00 0.00 0.00 0.00 0.00 0.00 0.00 0.00 0.00 0.00 0.00 0.00 0.00 0.00 0.00 0.00 0.00 0.00 0.00 0.00 0.00 0.00 0.00 0.00 0.00 0.00 0.00 0.00
0.03 0.01 0.06 0.06 0.04 0.04 0.09 0.18 0.42 0.59 0.53 0.35 0.14 0.02 0.00 0.00 0.00 0.00 0.00 0.00 0.00 0.00 0.00 0.00 0.00 0.00 0.00 0.00 0.00 0.00 0.00 0.00 0.00 0.00 0.00 0.00 0.00 0.00 0.00 0.00 0.00 0.00 0.00
0.01 0.01 0.00 0.00 0.00 0.00 0.00 0.02 0.06 0.10 0.25 0.19 0.13 0.05 0.00 0.00 0.00 0.00 0.00 0.00 0.00 0.00 0.00 0.00 0.00 0.00 0.00 0.00 0.00 0.00 0.00 0.00 0.00 0.00 0.00 0.00 0.00 0.00 0.00 0.00 0.00 0.00 0.00
0.03 0.01 0.00 0.00 0.00 0.00 0.00 0.00 0.00 0.01 0.04 0.08 0.06 0.02 0.00 0.00 0.00 0.00 0.00 0.00 0.00 0.00 0.00 0.00 0.00 0.00 0.00 0.00 0.00 0.00 0.00 0.00 0.00 0.00 0.00 0.00 0.00 0.00 0.00 0.00 0.00 0.00 0.00
0.02 0.01 0.00 0.00 0.00 0.00 0.00 0.00 0.00 0.00 0.00 0.01 0.03 0.01 0.00 0.00 0.00 0.00 0.00 0.00 0.00 0.00 0.00 0.00 0.00 0.00 0.00 0.00 0.00 0.00 0.00 0.00 0.00 0.00 0.00 0.00 0.00 0.00 0.00 0.00 0.00 0.00 0.00
0.01 0.01 0.03 0.03 0.04 0.00 0.00 0.00 0.00 0.00 0.01 0.01 0.01 0.00 0.00 0.00 0.00 0.00 0.00 0.00 0.00 0.00 0.00 0.00 0.00 0.00 0.00 0.00 0.00 0.00 0.00 0.00 0.00 0.00 0.00 0.00 0.00 0.00 0.00 0.00 0.00 0.00 0.00
0.00 0.03 0.06 0.05 0.09 0.06 0.04 0.01 0.00 0.00 0.01 0.01 0.00 0.00 0.00 0.00 0.00 0.00 0.00 0.00 0.00 0.00 0.00 0.00 0.00 0.00 0.00 0.00 0.00 0.00 0.00 0.00 0.00 0.00 0.00 0.00 0.00 0.00 0.00 0.00 0.00 0.00 0.00
0.01 0.02 0.07 0.22 0.19 0.13 0.04 0.03 0.03 0.01 0.01 0.00 0.00 0.00 0.00 0.00 0.00 0.00 0.00 0.00 0.00 0.00 0.00 0.00 0.00 0.00 0.00 0.00 0.00 0.00 0.00 0.00 0.00 0.00 0.00 0.00 0.00 0.00 0.00 0.00 0.00 0.00 0.00
0.00 0.01 0.01 0.14 0.18 0.08 0.00 0.01 0.01 0.01 0.00 0.00 0.00 0.00 0.00 0.00 0.00 0.00 0.00 0.00 0.00 0.00 0.00 0.00 0.00 0.00 0.00 0.00 0.00 0.00 0.00 0.00 0.00 0.00 0.00 0.00 0.00 0.00 0.00 0.00 0.00 0.00 0.00
0.00 0.00 0.00 0.06 0.06 0.04 0.01 0.00 0.01 0.00 0.00 0.00 0.00 0.00 0.00 0.00 0.00 0.00 0.00 0.00 0.00 0.00 0.00 0.00 0.00 0.00 0.00 0.00 0.00 0.00 0.00 0.00 0.00 0.00 0.00 0.00 0.00 0.00 0.00 0.00 0.00 0.00 0.00
0.00 0.00 0.00 0.02 0.00 0.00 0.00 0.00 0.01 0.00 0.00 0.00 0.00 0.00 0.00 0.00 0.00 0.00 0.00 0.00 0.00 0.00 0.00 0.00 0.00 0.00 0.00 0.00 0.00 0.00 0.00 0.00 0.00 0.00 0.00 0.00 0.00 0.00 0.00 0.00 0.00 0.00 0.00
0.00 0.00 0.00 0.00 0.00 0.00 0.00 0.00 0.00 0.00 0.00 0.00 0.00 0.00 0.00 0.00 0.00 0.00 0.00 0.00 0.00 0.00 0.00 0.00 0.00 0.00 0.00 0.00 0.00 0.00 0.00 0.00 0.00 0.00 0.00 0.00 0.00 0.00 0.00 0.00 0.00 0.00 0.00
0.00 0.00 0.00 0.00 0.00 0.00 0.00 0.00 0.00 0.00 0.00 0.00 0.00 0.00 0.00 0.00 0.00 0.00 0.00 0.00 0.00 0.00 0.00 0.00 0.00 0.00 0.00 0.00 0.00 0.00 0.00 0.00 0.00 0.00 0.00 0.00 0.00 0.00 0.00 0.00 0.00 0.00 0.00
0.00 0.00 0.00 0.00 0.00 0.00 0.00 0.00 0.00 0.00 0.00 0.00 0.00 0.00 0.00 0.00 0.00 0.00 0.00 0.00 0.00 0.00 0.00 0.00 0.00 0.01 0.01 0.02 0.01 0.00 0.01 0.01 0.00 0.00 0.00 0.00 0.00 0.00 0.00 0.00 0.00 0.00 0.00
0.00 0.00 0.00 0.00 0.00 0.00 0.00 0.00 0.00 0.00 0.00 0.00 0.00 0.00 0.00 0.00 0.00 0.00 0.00 0.00 0.00 0.00 0.00 0.00 0.00 0.01 0.02 0.02 0.02 0.02 0.01 0.01 0.01 0.02 0.01 0.01 0.01 0.00 0.00 0.00 0.00 0.00 0.00
0.00 0.00 0.00 0.00 0.00 0.00 0.00 0.00 0.00 0.00 0.00 0.00 0.00 0.00 0.00 0.00 0.00 0.00 0.00 0.00 0.00 0.00 0.00 0.00 0.00 0.00 0.01 0.01 0.01 0.01 0.03 0.05 0.05 0.04 0.02 0.00 0.00 0.00 0.00 0.00 0.00 0.00 0.00
MSLP
1010.47 1010.35 1010.64 1010.19 1011.65 1011.24 1012.35 1012.47 1013.07 1012.02 1013.16 1013.43 1013.76 1014.14 1014.09 1014.19 1014.47 1014.90 1014.82 1015.14 1015.68 1016.17 1016.53 1016.97 1017.45 1017.66 1017.91 1018.14 1018.28 1018.63 1018.80 1019.08 1019.18 1019.28 1019.35 1019.52 1019.65 1019.72 1019.64 1019.86 1019.89 1019.87 1019.94
1010.51 1010.59 1010.35 1010.82 1011.77 1011.24 1011.74 1012.68 1012.80 1013.32 1013.33 1013.74 1013.88 1014.31 1014.51 1014.41 1014.74 1014.80 1015.02 1015.35 1015.73 1016.36 1016.95 1017.38 1017.91 1018.28 1018.38 1018.64 1018.86 1019.25 1019.43 1019.63 1019.70 1019.78 1020.01 1020.15 1020.24 1020.27 1020.37 1020.44 1020.50 1020.54 1020.60
1010.38 1010.76 1010.71 1010.19 1010.89 1011.22 1011.65 1012.24 1013.08 1013.89 1013.79 1013.94 1014.24 1014.67 1014.96 1015.09 1015.01 1014.74 1015.17 1015.72 1015.76 1016.23 1016.84 1017.69 1017.91 1018.52 1018.91 1019.22 1019.43 1019.68 1019.96 1020.12 1020.26 1020.42 1020.53 1020.67 1020.91 1020.85 1020.82 1020.96 1021.08 1021.17 1021.31
1011.27 1010.72 1010.66 1010.85 1010.98 1011.04 1010.78 1010.60 1013.16 1014.67 1014.22 1014.48 1014.68 1015.32 1015.55 1015.69 1015.55 1015.24 1015.69 1016.18 1016.34 1016.68 1017.04 1017.50 1018.26 1018.83 1019.16 1019.51 1019.91 1020.23 1020.45 1020.57 1020.82 1021.13 1021.32 1021.41 1021.44 1021.63 1021.58 1021.57 1021.72 1021.97 1022.21
1011.37 1011.25 1011.12 1011.34 1011.64 1011.84 1011.95 1011.63 1012.45 1014.34 1014.71 1014.63 1014.98 1015.62 1015.87 1015.83 1015.57 1015.75 1016.17 1016.45 1016.82 1017.03 1017.62 1017.92 1018.46 1018.95 1019.33 1019.76 1020.38 1020.68 1021.04 1021.13 1021.32 1021.70 1021.98 1022.12 1022.09 1022.06 1022.27 1022.33 1022.37 1022.72 1022.99
1011.06 1011.35 1011.83 1011.66 1012.16 1013.08 1013.05 1012.74 1012.07 1013.74 1014.95 1014.55 1014.86 1015.40 1016.02 1015.99 1015.84 1016.06 1016.34 1016.50 1016.84 1017.33 1018.04 1018.38 1018.64 1019.28 1019.66 1020.20 1020.65 1021.15 1021.64 1021.82 1021.88 1022.10 1022.43 1022.45 1022.56 1022.59 1022.79 1022.99 1023.02 1023.43 1023.47
1011.01 1011.29 1011.78 1012.79 1013.53 1013.73 1014.84 1015.01 1013.45 1013.55 1014.82 1014.39 1014.66 1015.27 1016.22 1016.21 1016.17 1016.42 1016.63 1016.94 1017.33 1017.79 1018.24 1018.63 1018.98 1019.53 1020.03 1020.46 1020.96 1021.49 1021.94 1022.24 1022.35 1022.65 1022.73 1022.85 1022.89 1022.91 1023.28 1023.53 1023.84 1024.06 1024.31
1011.33 1011.56 1012.04 1012.74 1013.32 1014.22 1015.04 1013.39 1013.21 1013.74 1014.59 1014.36 1014.36 1015.61 1016.28 1016.55 1016.39 1016.69 1016.96 1017.43 1017.91 1018.21 1018.57 1019.02 1019.40 1019.66 1020.23 1020.70 1021.16 1021.80 1022.17 1022.50 1022.79 1022.99 1023.21 1023.06 1023.22 1023.40 1023.80 1024.07 1024.35 1024.53 1024.78
1012.08 1012.20 1012.44 1012.31 1012.72 1014.22 1014.27 1011.35 1013.18 1013.59 1013.84 1014.63 1014.17 1015.35 1016.27 1016.83 1016.78 1017.00 1017.37 1017.93 1018.09 1018.62 1018.93 1019.35 1019.91 1020.17 1020.46 1020.91 1021.35 1021.97 1022.50 1022.73 1023.03 1023.30 1023.50 1023.52 1023.61 1023.76 1024.13 1024.51 1024.76 1024.93 1025.18
1012.64 1012.82 1013.11 1012.86 1013.03 1012.26 1013.57 1012.61 1013.22 1013.39 1014.04 1014.89 1014.43 1015.46 1016.29 1017.11 1017.22 1017.34 1017.74 1018.11 1018.24 1018.73 1019.15 1019.71 1020.17 1020.54 1020.93 1021.36 1021.78 1022.09 1022.62 1023.04 1023.28 1023.66 1023.83 1023.78 1023.91 1024.18 1024.53 1024.83 1025.14 1025.45 1025.52
1012.77 1013.09 1013.06 1013.19 1013.43 1012.84 1013.39 1013.10 1014.47 1014.14 1014.26 1014.83 1014.78 1015.77 1016.94 1017.54 1017.78 1017.74 1017.99 1018.49 1018.54 1019.01 1019.45 1019.82 1020.10 1020.34 1020.86 1021.68 1022.08 1022.35 1022.90 1023.31 1023.43 1023.74 1023.91 1023.96 1024.14 1024.48 1025.01 1025.35 1025.56 1025.85 1026.11
1012.56 1012.81 1012.92 1013.04 1012.96 1013.09 1013.35 1013.00 1014.42 1014.56 1014.79 1014.85 1015.63 1016.59 1017.05 1017.92 1018.07 1018.17 1018.58 1019.10 1019.11 1019.31 1019.95 1020.29 1020.68 1021.09 1021.47 1022.11 1022.42 1022.70 1023.27 1023.56 1023.81 1023.97 1024.10 1024.31 1024.46 1024.76 1025.20 1025.54 1025.71 1026.01 1026.30
1012.54 1012.68 1013.05 1013.21 1013.36 1013.71 1014.04 1014.60 1014.84 1015.73 1015.44 1015.91 1016.23 1016.77 1017.38 1018.18 1018.29 1018.70 1018.95 1019.60 1019.75 1019.50 1020.08 1020.54 1021.40 1021.48 1022.09 1022.48 1022.96 1023.35 1023.65 1023.90 1024.08 1024.28 1024.40 1024.60 1024.85 1025.22 1025.43 1025.72 1025.90 1026.16 1026.51
1012.43 1012.64 1012.92 1013.39 1013.76 1013.89 1014.45 1014.76 1015.53 1015.62 1016.09 1016.34 1016.31 1017.09 1017.67 1018.33 1018.61 1019.13 1019.25 1019.87 1019.98 1019.83 1020.28 1020.85 1021.58 1022.30 1022.39 1022.78 1023.24 1023.72 1024.02 1024.32 1024.44 1024.62 1024.71 1024.75 1025.07 1025.31 1025.60 1025.74 1025.98 1026.30 1026.72
1012.46 1012.63 1013.12 1013.40 1013.68 1014.01 1014.38 1014.79 1015.25 1015.26 1015.77 1016.01 1017.03 1017.30 1017.32 1018.11 1018.91 1019.45 1019.81 1020.02 1019.91 1020.64 1020.41 1021.42 1021.89 1022.60 1022.66 1023.08 1023.61 1023.88 1024.14 1024.34 1024.67 1024.76 1024.95 1025.00 1025.24 1025.36 1025.52 1025.72 1026.03 1026.35 1026.73
1012.64 1012.83 1013.18 1013.47 1013.84 1014.00 1014.46 1014.84 1015.24 1015.54 1016.12 1016.45 1017.07 1017.09 1017.37 1018.15 1019.15 1019.43 1020.05 1019.99 1020.49 1020.48 1020.78 1021.52 1022.06 1022.41 1023.03 1023.49 1023.76 1023.91 1024.32 1024.61 1024.72 1024.86 1025.01 1025.09 1025.16 1025.42 1025.58 1025.85 1026.03 1026.51 1026.65
1012.90 1012.90 1013.29 1013.63 1013.91 1014.28 1014.63 1014.94 1015.47 1015.64 1015.90 1016.46 1016.76 1017.22 1017.78 1018.34 1018.84 1019.60 1019.94 1020.30 1020.60 1020.40 1021.12 1021.36 1022.17 1022.81 1023.32 1023.59 1023.82 1024.04 1024.22 1024.50 1024.57 1024.83 1025.07 1025.31 1025.22 1025.24 1025.38 1025.63 1026.07 1026.22 1026.43
1012.88 1013.01 1013.23 1013.75 1014.01 1014.37 1014.93 1015.28 1015.51 1015.84 1016.11 1016.26 1016.81 1017.43 1018.13 1018.35 1018.91 1019.35 1019.90 1020.49 1020.11 1020.53 1021.20 1021.79 1022.48 1023.06 1023.40 1023.68 1023.83 1024.05 1024.23 1024.30 1024.34 1024.59 1024.83 1024.94 1024.96 1025.00 1025.15 1025.33 1025.79 1026.00 1026.08
1012.95 1013.28 1013.47 1013.81 1014.25 1014.88 1015.43 1015.58 1015.70 1015.99 1016.13 1016.44 1016.98 1017.53 1018.20 1018.22 1018.77 1019.31 1019.93 1020.23 1020.01 1020.82 1021.55 1021.75 1022.39 1022.70 1023.41 1023.68 1023.95 1024.16 1024.22 1024.10 1024.15 1024.30 1024.47 1024.61 1024.76 1024.90 1025.19 1025.26 1025.53 1025.74 1025.97
1013.00 1013.24 1013.66 1013.98 1014.41 1015.03 1015.48 1015.86 1016.31 1016.68 1016.72 1017.15 1017.52 1017.82 1018.12 1018.39 1019.01 1019.39 1019.91 1020.06 1020.46 1020.99 1021.38 1021.88 1022.30 1022.78 1023.27 1023.62 1024.11 1024.36 1024.53 1024.73 1024.56 1024.32 1024.30 1024.48 1024.84 1024.92 1025.28 1025.34 1025.43 1025.59 1025.80
1013.34 1013.58 1013.79 1014.28 1014.66 1015.24 1015.76 1016.14 1016.32 1016.49 1017.01 1017.46 1017.54 1017.97 1018.41 1018.92 1019.08 1019.40 1019.84 1020.17 1020.78 1020.91 1021.24 1021.61 1022.52 1023.00 1023.47 1023.71 1024.40 1024.74 1024.59 1024.39 1024.62 1024.50 1024.51 1024.69 1024.77 1024.94 1024.98 1025.24 1025.41 1025.43 1025.54
1013.48 1013.76 1013.87 1014.16 1014.69 1015.17 1015.66 1015.98 1016.29 1016.56 1017.19 1017.64 1017.86 1018.35 1018.84 1018.71 1018.77 1019.16 1019.81 1020.43 1020.39 1020.88 1021.07 1021.56 1022.15 1022.84 1023.15 1023.48 1023.97 1024.32 1024.62 1024.61 1024.37 1024.25 1024.42 1024.30 1024.31 1024.69 1024.94 1025.01 1025.16 1025.23 1025.40
1013.22 1013.53 1014.04 1014.52 1014.97 1015.37 1015.71 1016.04 1016.43 1016.76 1017.18 1017.48 1017.78 1018.12 1018.19 1018.09 1018.70 1019.30 1019.66 1019.77 1020.24 1020.57 1020.97 1021.38 1021.88 1022.27 1022.76 1023.26 1023.05 1023.43 1024.33 1024.05 1023.97 1023.82 1023.95 1024.02 1023.88 1024.24 1024.53 1024.76 1024.73 1024.74 1024.94
1012.86 1013.51 1014.02 1014.66 1015.36 1015.54 1015.98 1016.24 1016.58 1016.82 1017.29 1017.29 1017.51 1017.76 1017.97 1018.26 1018.64 1019.02 1019.26 1019.41 1019.48 1019.71 1020.33 1020.72 1021.23 1021.79 1022.26 1022.96 1023.31 1023.33 1023.38 1023.51 1024.02 1024.25 1023.77 1023.75 1023.85 1024.02 1024.08 1024.51 1024.52 1024.47 1024.52
1012.49 1012.99 1013.61 1014.28 1015.01 1015.56 1015.92 1016.24 1016.58 1017.00 1017.29 1017.25 1017.60 1017.81 1017.96 1018.11 1018.48 1018.52 1018.71 1018.84 1018.86 1019.15 1019.77 1020.20 1020.78 1021.28 1021.67 1022.19 1022.49 1023.24 1023.55 1023.67 1023.92 1023.97 1023.96 1023.75 1023.68 1023.38 1023.51 1023.73 1023.92 1024.02 1024.21
1012.22 1012.75 1013.29 1013.90 1014.46 1014.98 1015.32 1015.59 1015.99 1016.37 1016.72 1017.29 1017.41 1017.61 1017.72 1017.80 1017.93 1017.96 1018.03 1018.24 1018.42 1018.96 1019.33 1019.67 1020.03 1020.53 1020.92 1021.33 1021.68 1022.21 1022.51 1023.11 1023.44 1023.84 1023.72 1023.59 1023.66 1023.52 1023.40 1023.06 1023.53 1023.80 1023.89
Thickness
5701 5702 5701 5708 5687 5697 5693 5690 5692 5707 5694 5695 5697 5697 5703 5705 5703 5701 5705 5704 5700 5697 5695 5691 5686 5683 5681 5679 5678 5675 5675 5672 5671 5670 5669 5667 5666 5665 5665 5663 5663 5663 5662
5697 5699 5700 5700 5691 5696 5695 5686 5688 5686 5689 5688 5692 5693 5695 5700 5698 5700 5700 5700 5697 5693 5688 5685 5679 5675 5675 5672 5672 5669 5668 5666 5666 5665 5662 5661 5660 5659 5658 5657 5656 5655 5654
5696 5693 5694 5701 5697 5694 5690 5688 5684 5675 5680 5682 5687 5685 5686 5688 5692 5698 5696 5692 5695 5693 5688 5679 5677 5670 5667 5666 5665 5664 5662 5661 5660 5658 5657 5655 5653 5652 5652 5651 5649 5648 5647
5682 5689 5692 5692 5691 5691 5694 5694 5672 5662 5670 5672 5674 5672 5675 5677 5683 5689 5687 5685 5687 5686 5685 5680 5671 5666 5664 5663 5659 5657 5655 5656 5654 5651 5650 5648 5646 5644 5645 5645 5643 5640 5638
5677 5679 5680 5680 5678 5677 5677 5684 5680 5666 5661 5666 5666 5666 5669 5673 5679 5680 5678 5679 5679 5680 5676 5673 5668 5664 5661 5658 5653 5650 5647 5647 5647 5644 5642 5641 5640 5640 5638 5637 5636 5633 5632
5675 5674 5669 5670 5664 5656 5659 5667 5676 5660 5648 5660 5663 5665 5663 5667 5672 5672 5673 5675 5675 5674 5670 5666 5664 5659 5656 5651 5648 5643 5640 5640 5641 5640 5637 5635 5634 5633 5632 5630 5631 5627 5626
5668 5666 5662 5653 5650 5649 5641 5638 5652 5653 5644 5658 5662 5662 5656 5661 5665 5666 5667 5667 5668 5667 5666 5661 5657 5654 5650 5647 5642 5638 5634 5633 5634 5633 5633 5631 5630 5629 5626 5624 5621 5619 5617
5659 5656 5655 5650 5647 5638 5635 5646 5649 5645 5644 5649 5659 5652 5649 5653 5660 5660 5661 5659 5658 5659 5660 5654 5651 5649 5645 5641 5637 5632 5629 5627 5628 5628 5626 5628 5625 5624 5620 5618 5616 5614 5612
5647 5647 5644 5648 5643 5628 5630 5654 5635 5642 5644 5641 5654 5647 5646 5647 5652 5654 5655 5651 5653 5652 5652 5647 5643 5640 5638 5635 5633 5627 5623 5623 5624 5622 5620 5621 5619 5618 5615 5612 5610 5609 5607
5637 5639 5635 5636 5636 5643 5633 5637 5634 5634 5636 5634 5647 5644 5643 5641 5644 5648 5648 5647 5649 5648 5645 5640 5636 5632 5629 5625 5626 5624 5620 5618 5619 5616 5615 5615 5613 5611 5609 5607 5604 5602 5603
5632 5634 5632 5630 5627 5631 5621 5634 5624 5629 5628 5630 5638 5637 5632 5633 5635 5641 5642 5639 5642 5640 5638 5636 5632 5630 5626 5622 5619 5618 5614 5613 5615 5614 5611 5609 5608 5605 5601 5598 5597 5595 5593
5634 5634 5634 5633 5632 5629 5622 5630 5626 5632 5626 5626 5624 5623 5627 5624 5629 5632 5631 5629 5632 5632 5628 5627 5623 5620 5617 5614 5613 5612 5608 5607 5607 5608 5606 5603 5603 5600 5596 5595 5593 5591 5588
5636 5634 5630 5629 5627 5625 5623 5614 5619 5612 5620 5617 5614 5618 5617 5617 5622 5624 5625 5622 5622 5625 5623 5621 5614 5614 5608 5605 5603 5602 5601 5601 5602 5600 5598 5596 5595 5592 5591 5589 5588 5585 5581
5633 5632 5631 5625 5621 5620 5614 5613 5606 5608 5609 5616 5619 5613 5612 5612 5616 5616 5618 5615 5614 5617 5618 5613 5608 5603 5601 5597 5595 5595 5594 5593 5594 5592 5591 5592 5589 5587 5584 5584 5582 5579 5575
5632 5629 5624 5620 5617 5614 5614 5612 5611 5614 5614 5617 5609 5608 5613 5611 5608 5608 5609 5608 5611 5608 5610 5602 5600 5596 5595 5593 5590 5590 5590 5590 5588 5588 5587 5586 5583 5583 5582 5579 5577 5574 5570
5627 5624 5618 5614 5611 5611 5612 5610 5609 5608 5607 5609 5605 5610 5612 5608 5604 5605 5602 5606 5603 5604 5603 5596 5592 5592 5589 5587 5587 5588 5586 5585 5585 5585 5585 5584 5582 5579 5577 5574 5572 5567 5566
5619 5619 5612 5608 5604 5604 5605 5605 5603 5605 5605 5603 5607 5606 5604 5603 5601 5599 5599 5599 5597 5599 5594 5593 5587 5584 5584 5585 5584 5583 5583 5584 5585 5583 5582 5580 5579 5578 5575 5572 5566 5564 5560
5617 5614 5610 5604 5603 5602 5600 5600 5602 5604 5602 5605 5602 5600 5597 5599 5596 5596 5594 5592 5596 5593 5588 5585 5582 5580 5582 5583 5584 5581 5581 5583 5585 5583 5580 5579 5577 5575 5573 5570 5564 5561 5558
5613 5609 5605 5601 5598 5596 5593 5594 5597 5600 5600 5598 5596 5595 5593 5595 5593 5590 5588 5588 5592 5586 5581 5583 5581 5581 5579 5579 5579 5579 5580 5583 5582 5578 5578 5577 5575 5573 5569 5566 5561 5557 5553
5611 5607 5602 5598 5595 5591 5590 5590 5589 5587 5588 5586 5585 5587 5589 5590 5587 5585 5583 5585 5583 5581 5581 5580 5579 5578 5577 5578 5576 5574 5574 5574 5575 5577 5575 5573 5569 5567 5562 5559 5556 5552 5547
5606 5602 5598 5593 5592 5588 5584 5583 5585 5588 5587 5584 5585 5584 5583 5579 5578 5580 5578 5579 5576 5579 5579 5581 5574 5573 5573 5573 5569 5567 5569 5571 5571 5571 5570 5567 5564 5561 5558 5554 5550 5547 5543
5606 5603 5600 5598 5593 5589 5587 5585 5584 5583 5579 5576 5576 5575 5574 5577 5578 5577 5575 5572 5578 5578 5580 5577 5575 5573 5572 5571 5569 5567 5566 5566 5567 5568 5565 5564 5562 5556 5552 5548 5545 5542 5538
5612 5609 5602 5596 5592 5588 5585 5585 5583 5582 5577 5575 5576 5576 5578 5580 5576 5575 5575 5579 5578 5579 5577 5576 5575 5575 5572 5570 5574 5572 5564 5569 5567 5566 5563 5560 5557 5552 5547 5542 5541 5538 5533
5615 5609 5604 5597 5590 5588 5583 5582 5582 5581 5575 5579 5578 5580 5579 5579 5576 5574 5577 5578 5582 5583 5579 5578 5576 5573 5572 5568 5566 5566 5566 5564 5558 5557 5556 5554 5551 5547 5543 5538 5534 5532 5526
5619 5615 5610 5603 5596 5590 5587 5585 5582 5578 5576 5579 5578 5580 5582 5581 5577 5580 5582 5585 5587 5587 5582 5580 5576 5574 5572 5569 5567 5559 5556 5553 5549 5548 5547 5546 5542 5541 5538 5533 5528 5525 5518
5621 5618 5614 5608 5602 5598 5595 5594 5590 5587 5586 5582 5583 5584 5583 5582 5583 5584 5586 5586 5587 5583 5582 5580 5578 5575 5573 5569 5566 5561 5557 5550 5546 5539 5539 5537 5534 5531 5528 5527 5520 5514 5508